Regional Weather Roundup
Issued by NWS

Current Version | Previous Version | Text Only | Print | Product List | Glossary Off
Versions: 1 2 3 4 5 6 7 8 9 10 11 12 13 14 15 16 17 18 19 20 21 22 23 24 25 26 27 28

000
ASUS42 KFFC 230203
RWRGA
WEATHER ROUNDUP FOR GEORGIA
NATIONAL WEATHER SERVICE PEACHTREE CITY GA
1000 PM EDT WED OCT 22 2014

NOTE: "FAIR" INDICATES FEW OR NO CLOUDS BELOW 12,000 FEET WITH NO
SIGNIFICANT WEATHER AND/OR OBSTRUCTIONS TO VISIBILITY.

* = USE WITH CAUTION. THE STATIONS MARKED WITH AN ASTERISK MAY NOT
REPORT WEATHER SUCH AS PRECIPITATION, FOG, OR THUNDER AND ARE NOT
QUALITY CONTROLLED BY NWS.

THE REMARK "TC" DENOTES TEMPERATURE READING IN DEGREES CELSIUS.

GAZ001>058-230300-
NORTH GEORGIA

CITY           SKY/WX    TMP DP  RH WIND       PRES   REMARKS
ATLANTA        CLEAR     55  42  61 NW10      30.10S
ATHENS         CLEAR     51  43  74 E3        30.10R
CHAMBLEE       CLEAR     52  42  69 NW6       30.10S
PEACHTREE CITY CLEAR     54  44  69 NW5       30.12R
ROME           CLEAR     50  41  71 NW3       30.15R
WEST ATLANTA   CLEAR     54  41  61 CALM      30.11S
GAINESVILLE    CLEAR     54  43  66 N6        30.12R
CARTERSVILLE   CLEAR     50  40  68 CALM      30.14R


CITY           SKY/WX    TMP DP  RH WIND       PRES   REMARKS
DALTON*        CLEAR     50  43  76 N10       30.16R
MARIETTA       CLEAR     53  43  68 NW6       30.11S
KENNESAW*      CLEAR     52  39  62 CALM      30.13S
$$

GAZ059>098-102>109-230300-
CENTRAL GEORGIA

CITY           SKY/WX    TMP DP  RH WIND       PRES   REMARKS
AUGUSTA-BUSH   CLEAR     48  42  80 CALM      30.08R
AUGUSTA-DANIEL CLEAR     59  42  53 N5        30.09R
COLUMBUS       CLEAR     59  45  59 N5        30.09R
MACON          CLEAR     49  48  97 CALM      30.09R
ROBINS AFB     CLEAR     51  49  90 CALM      30.08R


CITY           SKY/WX    TMP DP  RH WIND       PRES   REMARKS
LAGRANGE*      CLEAR     59  47  63 N3        30.12S
SYLVANIA*      CLEAR     54  52  93 CALM      30.09R
MILLEDGEVILLE* CLEAR     50  50 100 CALM      30.08S
$$

GAZ099>101-110>166-230300-
SOUTH GEORGIA

CITY           SKY/WX    TMP DP  RH WIND       PRES   REMARKS
SAVANNAH       CLEAR     57  49  74 CALM      30.08R
VALDOSTA       CLEAR     53  45  74 CALM      30.06R
ALMA           CLEAR     48  45  89 CALM      30.06R
ST SIMONS      CLEAR     58  48  69 CALM      30.06R
FT STEWART     CLEAR     50  46  86 CALM      30.06R
ALBANY         CLEAR     53  47  79 N5        30.09R
HUNTER AFB     CLEAR     56  47  71 N5        30.05R
MOODY AFB      CLEAR     58  46  63 NE3       30.06R
BRUNSWICK      CLEAR     52  50  93 CALM      30.06S


CITY           SKY/WX    TMP DP  RH WIND       PRES   REMARKS
BAINBRIDGE*    CLEAR     61  50  67 NE3       30.07R
MOULTRIE*      CLEAR     59  50  72 CALM      30.07R
VIDALIA*       CLEAR     54  46  76 N3        30.08R
WAYCROSS*      CLEAR     55  52  87 CALM      30.06R
DOUGLAS*       CLEAR     61  46  59 N7        30.08R
$$



USA.gov is the U.S. government's official web portal to all federal, state and local government web resources and services.